Zurück zum Katalog

COSMOS 2251 DEB

AktivLEO
NORAD 35830·DEBRIS·🇷🇺 Russia

Gestartet Jun 16, 1993 von Plesetsk Cosmodrome

Loading…

Nächste Überflüge (nächste 24 Stunden)

TLE

AktuellSource: Space-Track

Epoche: Sep 14, 2026, 08:05 UTC

1 35830U 93036ATC 26257.33713866  .00002084  00000-0  81821-3 0  9996
2 35830  73.8597 123.8924 0121019  39.2650 321.7195 14.26031079651900

Verfolge COSMOS 2251 DEB in Echtzeit mit AllMySat

Download on the App Store